| time (UTC) | temp C | wind direction | speed KPH | gust KPH | rain 1hr cm | rain 24hr cm | rain mn cm | humidity % | barometer mb |
| 20260904182003 | 31 | 122 | 8.0 | 17.7 | 0.00 | 0.00 | 0.00 | 70 | 1015.3 |
| 20260904181524 | 31 | 149 | 8.0 | 17.7 | 0.00 | 0.00 | 0.00 | 71 | 1015.3 |
| 20260904181003 | 31 | 148 | 8.0 | 12.9 | 0.00 | 0.00 | 0.00 | 71 | 1015.3 |
| 20260904180503 | 31 | 121 | 8.0 | 12.9 | 0.00 | 0.00 | 0.00 | 72 | 1015.3 |
| 20260904180004 | 30 | 128 | 6.4 | 12.9 | 0.00 | 0.00 | 0.00 | 73 | 1015.4 |
| 20260904175504 | 30 | 148 | 6.4 | 12.9 | 0.00 | 0.00 | 0.00 | 73 | 1015.5 |
| 20260904175003 | 30 | 145 | 8.0 | 16.1 | 0.00 | 0.00 | 0.00 | 73 | 1015.7 |
| 20260904174503 | 30 | 136 | 6.4 | 16.1 | 0.00 | 0.00 | 0.00 | 73 | 1015.7 |
| 20260904174004 | 30 | 130 | 6.4 | 11.3 | 0.00 | 0.00 | 0.00 | 75 | 1015.7 |
| 20260904173503 | 30 | 141 | 6.4 | 12.9 | 0.00 | 0.00 | 0.00 | 75 | 1015.7 |
| 20260904173003 | 30 | 159 | 8.0 | 17.7 | 0.00 | 0.00 | 0.00 | 75 | 1015.8 |
| 20260904172503 | 30 | 160 | 8.0 | 17.7 | 0.00 | 0.00 | 0.00 | 75 | 1015.9 |
| 20260904172004 | 29 | 153 | 8.0 | 16.1 | 0.00 | 0.00 | 0.00 | 76 | 1016.0 |
| 20260904171504 | 29 | 170 | 6.4 | 16.1 | 0.00 | 0.00 | 0.00 | 76 | 1015.9 |
| 20260904171024 | 29 | 186 | 6.4 | 19.3 | 0.00 | 0.00 | 0.00 | 76 | 1015.9 |
| 20260904170504 | 29 | 182 | 8.0 | 19.3 | 0.00 | 0.00 | 0.00 | 76 | 1015.9 |
| 20260904170004 | 29 | 171 | 9.7 | 22.5 | 0.00 | 0.00 | 0.00 | 76 | 1016.0 |
| 20260904165504 | 28 | 173 | 11.3 | 22.5 | 0.00 | 0.00 | 0.00 | 76 | 1015.9 |
| 20260904165024 | 28 | 181 | 9.7 | 20.9 | 0.00 | 0.00 | 0.00 | 77 | 1015.8 |
| 20260904164524 | 28 | 185 | 9.7 | 17.7 | 0.00 | 0.00 | 0.00 | 78 | 1015.9 |
| 20260904164004 | 28 | 183 | 11.3 | 20.9 | 0.00 | 0.00 | 0.00 | 78 | 1015.7 |
| 20260904163524 | 28 | 184 | 11.3 | 20.9 | 0.00 | 0.00 | 0.00 | 79 | 1015.7 |
| 20260904163004 | 28 | 187 | 9.7 | 20.9 | 0.00 | 0.00 | 0.00 | 80 | 1015.7 |
| 20260904162503 | 28 | 190 | 8.0 | 20.9 | 0.00 | 0.00 | 0.00 | 82 | 1015.6 |
| 20260904162004 | 28 | 192 | 11.3 | 25.7 | 0.00 | 0.00 | 0.00 | 82 | 1015.6 |
| 20260904161503 | 28 | 186 | 12.9 | 25.7 | 0.00 | 0.00 | 0.00 | 83 | 1015.6 |
| 20260904161003 | 27 | 180 | 11.3 | 22.5 | 0.00 | 0.00 | 0.00 | 83 | 1015.7 |
| 20260904160524 | 27 | 185 | 9.7 | 17.7 | 0.00 | 0.00 | 0.00 | 85 | 1015.6 |
| 20260904160003 | 27 | 196 | 8.0 | 17.7 | 0.00 | 0.00 | 0.00 | 86 | 1015.6 |
| 20260904155524 | 27 | 199 | 6.4 | 17.7 | 0.00 | 0.00 | 0.00 | 87 | 1015.6 |
| 20260904155003 | 27 | 196 | 6.4 | 12.9 | 0.00 | 0.00 | 0.00 | 87 | 1015.6 |
| 20260904154503 | 27 | 196 | 8.0 | 12.9 | 0.00 | 0.00 | 0.00 | 87 | 1015.6 |
| 20260904154003 | 27 | 196 | 6.4 | 12.9 | 0.00 | 0.00 | 0.00 | 87 | 1015.6 |
| 20260904153503 | 27 | 195 | 6.4 | 12.9 | 0.00 | 0.00 | 0.00 | 87 | 1015.6 |
| 20260904153003 | 27 | 200 | 8.0 | 12.9 | 0.00 | 0.00 | 0.00 | 86 | 1015.7 |
| 20260904152503 | 27 | 204 | 6.4 | 12.9 | 0.00 | 0.00 | 0.00 | 86 | 1015.6 |
| 20260904152003 | 27 | 204 | 6.4 | 9.7 | 0.00 | 0.00 | 0.00 | 86 | 1015.6 |
| 20260904151503 | 27 | 207 | 6.4 | 11.3 | 0.00 | 0.00 | 0.00 | 85 | 1015.7 |
| 20260904151003 | 27 | 199 | 8.0 | 12.9 | 0.00 | 0.00 | 0.00 | 84 | 1015.6 |
| 20260904150503 | 27 | 192 | 6.4 | 12.9 | 0.00 | 0.00 | 0.00 | 84 | 1015.6 |
| 20260904150025 | 27 | 184 | 6.4 | 12.9 | 0.00 | 0.00 | 0.00 | 85 | 1015.6 |
| 20260904145503 | 27 | 170 | 6.4 | 12.9 | 0.00 | 0.00 | 0.00 | 85 | 1015.6 |
| 20260904145003 | 27 | 171 | 6.4 | 9.7 | 0.00 | 0.00 | 0.00 | 85 | 1015.6 |
| 20260904144503 | 27 | 182 | 6.4 | 9.7 | 0.00 | 0.00 | 0.00 | 85 | 1015.7 |
| 20260904144003 | 27 | 180 | 8.0 | 16.1 | 0.00 | 0.00 | 0.00 | 85 | 1015.7 |
| 20260904143503 | 27 | 162 | 6.4 | 16.1 | 0.00 | 0.00 | 0.00 | 86 | 1015.6 |
| 20260904143003 | 27 | 155 | 6.4 | 11.3 | 0.00 | 0.00 | 0.00 | 86 | 1015.5 |
| 20260904142503 | 27 | 169 | 6.4 | 12.9 | 0.00 | 0.00 | 0.00 | 86 | 1015.6 |
| 20260904142003 | 27 | 181 | 6.4 | 12.9 | 0.00 | 0.00 | 0.00 | 87 | 1015.5 |
| 20260904141503 | 27 | 193 | 8.0 | 11.3 | 0.00 | 0.00 | 0.00 | 87 | 1015.5 |
| 20260904141003 | 27 | 189 | 8.0 | 11.3 | 0.00 | 0.00 | 0.00 | 87 | 1015.5 |
| 20260904140524 | 27 | 180 | 6.4 | 11.3 | 0.00 | 0.00 | 0.00 | 87 | 1015.4 |
| 20260904140024 | 27 | 169 | 6.4 | 11.3 | 0.00 | 0.00 | 0.00 | 88 | 1015.5 |
| 20260904135503 | 27 | 163 | 3.2 | 9.7 | 0.00 | 0.00 | 0.00 | 88 | 1015.5 |
| 20260904135003 | 27 | 181 | 3.2 | 11.3 | 0.00 | 0.00 | 0.00 | 89 | 1015.4 |
| 20260904134503 | 27 | 176 | 3.2 | 11.3 | 0.00 | 0.00 | 0.00 | 89 | 1015.3 |
| 20260904134003 | 27 | 131 | 3.2 | 9.7 | 0.00 | 0.00 | 0.00 | 89 | 1015.3 |
| 20260904133503 | 27 | 109 | 3.2 | 8.0 | 0.00 | 0.00 | 0.00 | 89 | 1015.2 |
| 20260904133003 | 27 | 143 | 3.2 | 9.7 | 0.00 | 0.00 | 0.00 | 89 | 1015.2 |
| 20260904132503 | 26 | 162 | 3.2 | 9.7 | 0.00 | 0.00 | 0.00 | 89 | 1015.2 |
| 20260904132003 | 26 | 142 | 3.2 | 8.0 | 0.00 | 0.00 | 0.00 | 89 | 1015.1 |
| 20260904131503 | 26 | 154 | 3.2 | 11.3 | 0.00 | 0.00 | 0.00 | 89 | 1015.1 |
| 20260904131024 | 26 | 149 | 6.4 | 11.3 | 0.00 | 0.00 | 0.00 | 89 | 1015.1 |
| 20260904130503 | 26 | 132 | 6.4 | 9.7 | 0.00 | 0.00 | 0.00 | 89 | 1015.1 |
| 20260904130003 | 26 | 140 | 6.4 | 12.9 | 0.00 | 0.00 | 0.00 | 89 | 1015.0 |
| 20260904125503 | 26 | 151 | 6.4 | 12.9 | 0.00 | 0.00 | 0.00 | 89 | 1015.0 |
| 20260904125003 | 26 | 149 | 6.4 | 12.9 | 0.00 | 0.00 | 0.00 | 89 | 1015.0 |
| 20260904124504 | 26 | 143 | 6.4 | 11.3 | 0.00 | 0.00 | 0.00 | 89 | 1015.0 |
| 20260904124004 | 26 | 151 | 6.4 | 11.3 | 0.00 | 0.00 | 0.00 | 89 | 1014.9 |
| 20260904123504 | 26 | 147 | 8.0 | 12.9 | 0.00 | 0.00 | 0.00 | 89 | 1014.9 |
| 20260904123025 | 26 | 148 | 6.4 | 12.9 | 0.00 | 0.00 | 0.00 | 89 | 1014.9 |
| 20260904122504 | 26 | 147 | 6.4 | 9.7 | 0.00 | 0.00 | 0.00 | 89 | 1014.8 |
| 20260904122004 | 26 | 141 | 6.4 | 12.9 | 0.00 | 0.00 | 0.00 | 89 | 1014.6 |
| 20260904121504 | 26 | 141 | 6.4 | 16.1 | 0.00 | 0.00 | 0.00 | 89 | 1014.5 |
| 20260904121004 | 26 | 133 | 8.0 | 16.1 | 0.00 | 0.00 | 0.00 | 89 | 1014.4 |
| 20260904120504 | 26 | 130 | 8.0 | 16.1 | 0.00 | 0.00 | 0.00 | 89 | 1014.4 |
| 20260904120004 | 26 | 123 | 8.0 | 17.7 | 0.00 | 0.00 | 0.00 | 89 | 1014.3 |
| 20260904115504 | 26 | 119 | 8.0 | 17.7 | 0.00 | 0.00 | 0.00 | 89 | 1014.4 |
| 20260904115025 | 26 | 121 | 8.0 | 17.7 | 0.00 | 0.00 | 0.00 | 89 | 1014.3 |
| 20260904114525 | 26 | 123 | 8.0 | 17.7 | 0.00 | 0.00 | 0.00 | 89 | 1014.3 |
| 20260904114004 | 26 | 122 | 8.0 | 16.1 | 0.00 | 0.00 | 0.00 | 89 | 1014.2 |
| 20260904113504 | 26 | 126 | 6.4 | 17.7 | 0.00 | 0.00 | 0.00 | 88 | 1014.2 |
| 20260904113004 | 26 | 134 | 6.4 | 17.7 | 0.00 | 0.00 | 0.00 | 88 | 1014.0 |
| 20260904112504 | 26 | 134 | 6.4 | 17.7 | 0.00 | 0.00 | 0.00 | 88 | 1014.1 |
| 20260904112004 | 26 | 128 | 6.4 | 17.7 | 0.00 | 0.00 | 0.00 | 88 | 1014.1 |
| 20260904111504 | 26 | 122 | 6.4 | 12.9 | 0.00 | 0.00 | 0.00 | 88 | 1014.1 |
| 20260904111004 | 26 | 118 | 8.0 | 16.1 | 0.00 | 0.00 | 0.00 | 88 | 1014.0 |
| 20260904110504 | 26 | 119 | 8.0 | 17.7 | 0.00 | 0.00 | 0.00 | 88 | 1014.0 |
| 20260904110004 | 26 | 118 | 8.0 | 17.7 | 0.00 | 0.00 | 0.00 | 88 | 1014.0 |
| 20260904105504 | 26 | 121 | 8.0 | 16.1 | 0.00 | 0.00 | 0.00 | 88 | 1014.0 |
| 20260904105004 | 26 | 123 | 6.4 | 12.9 | 0.00 | 0.00 | 0.00 | 88 | 1013.8 |
| 20260904104504 | 26 | 125 | 6.4 | 11.3 | 0.00 | 0.00 | 0.00 | 87 | 1013.7 |
| 20260904104004 | 26 | 143 | 6.4 | 11.3 | 0.00 | 0.00 | 0.00 | 87 | 1013.7 |
| 20260904103504 | 26 | 153 | 6.4 | 12.9 | 0.00 | 0.00 | 0.00 | 87 | 1013.6 |
| 20260904103004 | 26 | 154 | 6.4 | 12.9 | 0.00 | 0.00 | 0.00 | 87 | 1013.6 |
| 20260904102504 | 26 | 161 | 6.4 | 9.7 | 0.00 | 0.00 | 0.00 | 87 | 1013.6 |
| 20260904102004 | 26 | 158 | 6.4 | 9.7 | 0.00 | 0.00 | 0.00 | 87 | 1013.6 |
| 20260904101504 | 26 | 162 | 6.4 | 12.9 | 0.00 | 0.00 | 0.00 | 87 | 1013.6 |
| 20260904101025 | 26 | 163 | 6.4 | 12.9 | 0.00 | 0.00 | 0.00 | 87 | 1013.6 |
| 20260904100504 | 26 | 156 | 6.4 | 11.3 | 0.00 | 0.00 | 0.00 | 87 | 1013.6 |
| 20260904100004 | 26 | 157 | 6.4 | 16.1 | 0.00 | 0.00 | 0.00 | 87 | 1013.6 |
| 20260904095525 | 26 | 153 | 6.4 | 16.1 | 0.00 | 0.00 | 0.00 | 87 | 1013.7 |
| 20260904095025 | 26 | 151 | 6.4 | 16.1 | 0.00 | 0.00 | 0.00 | 87 | 1013.7 |
| 20260904094504 | 26 | 162 | 8.0 | 16.1 | 0.00 | 0.00 | 0.00 | 87 | 1013.6 |
| 20260904094004 | 26 | 161 | 8.0 | 17.7 | 0.00 | 0.00 | 0.00 | 87 | 1013.4 |
| 20260904093525 | 26 | 161 | 8.0 | 17.7 | 0.00 | 0.00 | 0.00 | 87 | 1013.5 |
| 20260904093004 | 26 | 174 | 6.4 | 11.3 | 0.00 | 0.00 | 0.00 | 87 | 1013.4 |
| 20260904092504 | 26 | 178 | 6.4 | 11.3 | 0.00 | 0.00 | 0.00 | 86 | 1013.5 |
| 20260904092004 | 26 | 176 | 6.4 | 12.9 | 0.00 | 0.00 | 0.00 | 86 | 1013.4 |
| 20260904091503 | 26 | 173 | 8.0 | 12.9 | 0.00 | 0.00 | 0.00 | 86 | 1013.4 |
| 20260904091025 | 26 | 173 | 6.4 | 12.9 | 0.00 | 0.00 | 0.00 | 86 | 1013.4 |
| 20260904090504 | 26 | 174 | 8.0 | 17.7 | 0.00 | 0.00 | 0.00 | 86 | 1013.3 |
| 20260904090004 | 26 | 170 | 6.4 | 17.7 | 0.00 | 0.00 | 0.00 | 86 | 1013.5 |
| 20260904085504 | 26 | 165 | 6.4 | 11.3 | 0.00 | 0.00 | 0.00 | 86 | 1013.5 |
| 20260904085004 | 26 | 169 | 6.4 | 11.3 | 0.00 | 0.00 | 0.00 | 86 | 1013.5 |
| 20260904084504 | 26 | 171 | 6.4 | 12.9 | 0.00 | 0.00 | 0.00 | 86 | 1013.4 |
| 20260904084004 | 26 | 166 | 8.0 | 16.1 | 0.00 | 0.00 | 0.00 | 86 | 1013.4 |
| 20260904083504 | 26 | 168 | 8.0 | 16.1 | 0.00 | 0.00 | 0.00 | 85 | 1013.4 |
| 20260904083004 | 27 | 172 | 8.0 | 16.1 | 0.00 | 0.00 | 0.00 | 85 | 1013.4 |
| 20260904082504 | 27 | 170 | 8.0 | 16.1 | 0.00 | 0.00 | 0.00 | 85 | 1013.4 |
| 20260904082004 | 27 | 167 | 8.0 | 16.1 | 0.00 | 0.00 | 0.00 | 85 | 1013.4 |
| 20260904081504 | 27 | 173 | 8.0 | 16.1 | 0.00 | 0.00 | 0.00 | 85 | 1013.4 |
| 20260904081025 | 27 | 178 | 8.0 | 17.7 | 0.00 | 0.00 | 0.00 | 84 | 1013.4 |
| 20260904080525 | 27 | 169 | 8.0 | 17.7 | 0.00 | 0.00 | 0.00 | 84 | 1013.4 |
| 20260904080004 | 27 | 170 | 8.0 | 16.1 | 0.00 | 0.00 | 0.00 | 84 | 1013.4 |
| 20260904075504 | 27 | 173 | 9.7 | 17.7 | 0.00 | 0.00 | 0.00 | 84 | 1013.4 |
| 20260904075025 | 27 | 171 | 9.7 | 17.7 | 0.00 | 0.00 | 0.00 | 84 | 1013.5 |
| 20260904074504 | 27 | 171 | 9.7 | 20.9 | 0.00 | 0.00 | 0.00 | 84 | 1013.5 |
| 20260904074024 | 27 | 170 | 9.7 | 20.9 | 0.00 | 0.00 | 0.00 | 84 | 1013.6 |
| 20260904073503 | 27 | 168 | 8.0 | 17.7 | 0.00 | 0.00 | 0.00 | 84 | 1013.7 |
| 20260904073004 | 27 | 170 | 8.0 | 25.7 | 0.00 | 0.00 | 0.00 | 84 | 1013.7 |
| 20260904072504 | 27 | 166 | 9.7 | 25.7 | 0.00 | 0.00 | 0.00 | 84 | 1013.7 |
| 20260904072025 | 27 | 162 | 9.7 | 20.9 | 0.00 | 0.00 | 0.00 | 84 | 1013.8 |
| 20260904071503 | 27 | 165 | 8.0 | 20.9 | 0.00 | 0.00 | 0.00 | 84 | 1013.7 |
| 20260904071003 | 27 | 167 | 8.0 | 17.7 | 0.00 | 0.00 | 0.00 | 84 | 1013.8 |
| 20260904070503 | 27 | 167 | 8.0 | 17.7 | 0.00 | 0.00 | 0.00 | 84 | 1013.8 |
| 20260904070004 | 27 | 167 | 9.7 | 27.4 | 0.00 | 0.00 | 0.00 | 84 | 1013.8 |
| 20260904065504 | 27 | 169 | 9.7 | 27.4 | 0.00 | 0.00 | 0.00 | 84 | 1013.9 |
| 20260904065004 | 27 | 171 | 9.7 | 20.9 | 0.00 | 0.00 | 0.00 | 84 | 1014.0 |
| 20260904064504 | 27 | 172 | 9.7 | 20.9 | 0.00 | 0.00 | 0.00 | 83 | 1014.0 |
| 20260904064003 | 27 | 176 | 9.7 | 19.3 | 0.00 | 0.00 | 0.00 | 83 | 1013.9 |
| 20260904063524 | 27 | 173 | 8.0 | 17.7 | 0.00 | 0.00 | 0.00 | 83 | 1014.0 |
| 20260904063004 | 27 | 160 | 8.0 | 16.1 | 0.00 | 0.00 | 0.00 | 83 | 1014.0 |
| 20260904062504 | 27 | 161 | 8.0 | 17.7 | 0.00 | 0.00 | 0.00 | 83 | 1014.0 |
| 20260904062024 | 27 | 162 | 8.0 | 17.7 | 0.00 | 0.00 | 0.00 | 83 | 1013.9 |
| 20260904061503 | 27 | 160 | 8.0 | 17.7 | 0.00 | 0.00 | 0.00 | 83 | 1013.9 |
| 20260904061004 | 27 | 157 | 8.0 | 17.7 | 0.00 | 0.00 | 0.00 | 83 | 1014.0 |
| 20260904060503 | 27 | 158 | 8.0 | 16.1 | 0.00 | 0.00 | 0.00 | 82 | 1014.0 |
| 20260904060004 | 27 | 159 | 9.7 | 17.7 | 0.00 | 0.00 | 0.00 | 82 | 1014.0 |
| 20260904055504 | 27 | 155 | 9.7 | 19.3 | 0.00 | 0.00 | 0.00 | 82 | 1014.0 |
| 20260904055003 | 27 | 150 | 8.0 | 19.3 | 0.00 | 0.00 | 0.00 | 82 | 1014.0 |
| 20260904054524 | 27 | 153 | 8.0 | 19.3 | 0.00 | 0.00 | 0.00 | 81 | 1014.0 |
| 20260904054003 | 27 | 154 | 8.0 | 19.3 | 0.00 | 0.00 | 0.00 | 81 | 1013.9 |
| 20260904053504 | 27 | 158 | 8.0 | 17.7 | 0.00 | 0.00 | 0.00 | 81 | 1013.9 |
| 20260904053004 | 27 | 151 | 8.0 | 19.3 | 0.00 | 0.00 | 0.00 | 81 | 1013.8 |
| 20260904052503 | 27 | 143 | 8.0 | 19.3 | 0.00 | 0.00 | 0.00 | 80 | 1013.8 |
| 20260904052024 | 27 | 143 | 8.0 | 16.1 | 0.00 | 0.00 | 0.00 | 80 | 1013.8 |
| 20260904051525 | 27 | 139 | 8.0 | 16.1 | 0.00 | 0.00 | 0.00 | 80 | 1013.8 |
| 20260904051003 | 27 | 135 | 8.0 | 16.1 | 0.00 | 0.00 | 0.00 | 80 | 1013.8 |
| 20260904050504 | 27 | 138 | 6.4 | 12.9 | 0.00 | 0.00 | 0.00 | 80 | 1013.7 |
| 20260904050004 | 27 | 136 | 6.4 | 12.9 | 0.00 | 0.00 | 0.00 | 80 | 1013.7 |
| 20260904045503 | 27 | 139 | 6.4 | 16.1 | 0.00 | 0.00 | 0.00 | 80 | 1013.7 |
| 20260904045004 | 27 | 139 | 8.0 | 16.1 | 0.00 | 0.00 | 0.00 | 79 | 1013.8 |
| 20260904044504 | 27 | 132 | 8.0 | 16.1 | 0.00 | 0.00 | 0.00 | 79 | 1013.8 |
| 20260904044003 | 27 | 131 | 6.4 | 16.1 | 0.00 | 0.00 | 0.00 | 79 | 1013.7 |
| 20260904043504 | 27 | 126 | 8.0 | 12.9 | 0.00 | 0.00 | 0.00 | 79 | 1013.7 |
| 20260904043004 | 27 | 122 | 8.0 | 12.9 | 0.00 | 0.00 | 0.00 | 79 | 1013.7 |
| 20260904042503 | 27 | 121 | 8.0 | 17.7 | 0.00 | 0.00 | 0.00 | 78 | 1013.6 |
| 20260904042024 | 27 | 123 | 9.7 | 17.7 | 0.00 | 0.00 | 0.00 | 78 | 1013.7 |
| 20260904041503 | 27 | 125 | 8.0 | 17.7 | 0.00 | 0.00 | 0.00 | 78 | 1013.6 |
| 20260904041003 | 27 | 128 | 8.0 | 17.7 | 0.00 | 0.00 | 0.00 | 78 | 1013.6 |
| 20260904040503 | 27 | 131 | 8.0 | 17.7 | 0.00 | 0.00 | 0.00 | 77 | 1013.7 |
| 20260904040003 | 27 | 130 | 8.0 | 19.3 | 0.00 | 0.00 | 0.00 | 77 | 1013.6 |
| 20260904035503 | 27 | 127 | 8.0 | 19.3 | 0.00 | 0.00 | 0.00 | 77 | 1013.6 |
| 20260904035004 | 27 | 118 | 6.4 | 16.1 | 0.00 | 0.00 | 0.00 | 77 | 1013.6 |
| 20260904034525 | 27 | 112 | 6.4 | 12.9 | 0.00 | 0.00 | 0.00 | 77 | 1013.6 |
| 20260904034003 | 27 | 114 | 6.4 | 12.9 | 0.00 | 0.00 | 0.00 | 76 | 1013.7 |
| 20260904033503 | 27 | 117 | 6.4 | 16.1 | 0.00 | 0.00 | 0.00 | 76 | 1013.7 |
| 20260904033003 | 27 | 114 | 6.4 | 16.1 | 0.00 | 0.00 | 0.00 | 76 | 1013.5 |
| 20260904032503 | 28 | 113 | 8.0 | 16.1 | 0.00 | 0.00 | 0.00 | 76 | 1013.4 |
| 20260904032024 | 28 | 111 | 8.0 | 19.3 | 0.00 | 0.00 | 0.00 | 75 | 1013.3 |
| 20260904031503 | 28 | 112 | 9.7 | 19.3 | 0.00 | 0.00 | 0.00 | 75 | 1013.4 |
| 20260904031003 | 28 | 114 | 9.7 | 19.3 | 0.00 | 0.00 | 0.00 | 75 | 1013.2 |
| 20260904030503 | 28 | 116 | 8.0 | 17.7 | 0.00 | 0.00 | 0.00 | 74 | 1013.2 |
| 20260904030003 | 28 | 113 | 8.0 | 17.7 | 0.00 | 0.00 | 0.00 | 74 | 1013.1 |
| 20260904025503 | 28 | 113 | 8.0 | 17.7 | 0.00 | 0.00 | 0.00 | 73 | 1013.1 |
| 20260904025024 | 28 | 113 | 8.0 | 17.7 | 0.00 | 0.00 | 0.00 | 73 | 1013.1 |
| 20260904024524 | 28 | 114 | 8.0 | 16.1 | 0.00 | 0.00 | 0.00 | 72 | 1013.1 |
| 20260904024003 | 28 | 108 | 8.0 | 20.9 | 0.00 | 0.00 | 0.00 | 72 | 1013.0 |
| 20260904023504 | 28 | 105 | 9.7 | 20.9 | 0.00 | 0.00 | 0.00 | 72 | 1012.9 |
| 20260904023003 | 28 | 112 | 9.7 | 17.7 | 0.00 | 0.00 | 0.00 | 71 | 1012.8 |
| 20260904022503 | 28 | 108 | 9.7 | 20.9 | 0.00 | 0.00 | 0.00 | 71 | 1012.9 |
| 20260904022025 | 28 | 104 | 9.7 | 20.9 | 0.00 | 0.00 | 0.00 | 71 | 1012.9 |
| 20260904021503 | 29 | 102 | 6.4 | 16.1 | 0.00 | 0.00 | 0.00 | 71 | 1012.9 |
| 20260904021003 | 29 | 103 | 6.4 | 12.9 | 0.00 | 0.00 | 0.00 | 70 | 1012.8 |
| 20260904020524 | 29 | 110 | 8.0 | 17.7 | 0.00 | 0.00 | 0.00 | 70 | 1012.7 |
| 20260904020003 | 29 | 113 | 11.3 | 19.3 | 0.00 | 0.00 | 0.00 | 70 | 1012.4 |
| 20260904015503 | 29 | 113 | 11.3 | 20.9 | 0.00 | 0.00 | 0.00 | 70 | 1012.2 |
| 20260904015024 | 29 | 117 | 9.7 | 20.9 | 0.00 | 0.00 | 0.00 | 70 | 1012.1 |
| 20260904014503 | 29 | 119 | 9.7 | 19.3 | 0.00 | 0.00 | 0.00 | 69 | 1012.0 |
| 20260904014003 | 29 | 117 | 9.7 | 19.3 | 0.00 | 0.00 | 0.00 | 69 | 1012.0 |
| 20260904013503 | 30 | 117 | 9.7 | 22.5 | 0.00 | 0.00 | 0.00 | 69 | 1012.1 |
| 20260904013003 | 30 | 114 | 11.3 | 22.5 | 0.00 | 0.00 | 0.00 | 68 | 1012.1 |
| 20260904012503 | 30 | 117 | 11.3 | 20.9 | 0.00 | 0.00 | 0.00 | 68 | 1012.0 |
| 20260904012003 | 30 | 115 | 12.9 | 27.4 | 0.00 | 0.00 | 0.00 | 68 | 1012.0 |
| 20260904011525 | 30 | 112 | 12.9 | 27.4 | 0.00 | 0.00 | 0.00 | 67 | 1011.9 |
| 20260904011003 | 30 | 114 | 9.7 | 22.5 | 0.00 | 0.00 | 0.00 | 67 | 1012.1 |
| 20260904010503 | 30 | 110 | 9.7 | 25.7 | 0.00 | 0.00 | 0.00 | 66 | 1012.0 |
| 20260904010003 | 30 | 117 | 11.3 | 25.7 | 0.00 | 0.00 | 0.00 | 66 | 1012.0 |
| 20260904005503 | 30 | 121 | 12.9 | 25.7 | 0.00 | 0.00 | 0.00 | 65 | 1012.0 |
| 20260904005003 | 30 | 116 | 12.9 | 25.7 | 0.00 | 0.00 | 0.00 | 65 | 1012.1 |
| 20260904004503 | 31 | 115 | 11.3 | 25.7 | 0.00 | 0.00 | 0.00 | 64 | 1012.0 |
| 20260904004025 | 31 | 113 | 9.7 | 20.9 | 0.00 | 0.00 | 0.00 | 64 | 1011.9 |
| 20260904003504 | 31 | 110 | 11.3 | 20.9 | 0.00 | 0.00 | 0.00 | 63 | 1011.9 |
| 20260904003004 | 31 | 111 | 11.3 | 25.7 | 0.00 | 0.00 | 0.00 | 63 | 1011.9 |
| 20260904002504 | 31 | 110 | 12.9 | 27.4 | 0.00 | 0.00 | 0.00 | 62 | 1011.9 |
| 20260904002004 | 31 | 109 | 16.1 | 30.6 | 0.00 | 0.00 | 0.00 | 61 | 1011.9 |
| 20260904001504 | 31 | 111 | 12.9 | 30.6 | 0.00 | 0.00 | 0.00 | 61 | 1011.8 |
| 20260904001004 | 31 | 116 | 9.7 | 25.7 | 0.00 | 0.00 | 0.00 | 60 | 1011.8 |
| 20260904000504 | 32 | 114 | 9.7 | 20.9 | 0.00 | 0.00 | 0.00 | 60 | 1011.7 |
| 20260904000004 | 32 | 110 | 11.3 | 27.4 | 0.00 | 0.00 | 0.00 | 60 | 1011.8 |
| 20260903235504 | 32 | 116 | 9.7 | 27.4 | 0.00 | 0.00 | 0.00 | 61 | 1011.9 |
| 20260903235025 | 32 | 123 | 11.3 | 27.4 | 0.00 | 0.00 | 0.00 | 61 | 1011.8 |
| 20260903234504 | 32 | 126 | 12.9 | 27.4 | 0.00 | 0.00 | 0.00 | 59 | 1011.8 |
| 20260903234004 | 32 | 121 | 16.1 | 29.0 | 0.00 | 0.00 | 0.00 | 59 | 1011.8 |
| 20260903233504 | 32 | 119 | 12.9 | 29.0 | 0.00 | 0.00 | 0.00 | 58 | 1011.6 |
| 20260903233004 | 33 | 122 | 12.9 | 27.4 | 0.00 | 0.00 | 0.00 | 58 | 1011.5 |
| 20260903232504 | 33 | 120 | 17.7 | 32.2 | 0.00 | 0.00 | 0.00 | 58 | 1011.4 |
| 20260903232004 | 33 | 117 | 16.1 | 32.2 | 0.00 | 0.00 | 0.00 | 57 | 1011.4 |
| 20260903231504 | 33 | 108 | 16.1 | 38.6 | 0.00 | 0.00 | 0.00 | 57 | 1011.4 |
| 20260903231004 | 34 | 111 | 19.3 | 38.6 | 0.00 | 0.00 | 0.00 | 57 | 1011.3 |
| 20260903230525 | 34 | 117 | 20.9 | 40.2 | 0.00 | 0.00 | 0.00 | 58 | 1011.3 |
| 20260903230004 | 34 | 119 | 20.9 | 41.8 | 0.00 | 0.00 | 0.00 | 57 | 1011.4 |
| 20260903225504 | 34 | 117 | 19.3 | 40.2 | 0.00 | 0.00 | 0.00 | 56 | 1011.0 |
| 20260903225004 | 35 | 109 | 20.9 | 41.8 | 0.00 | 0.00 | 0.00 | 53 | 1011.3 |
| 20260903224525 | 35 | 102 | 17.7 | 41.8 | 0.00 | 0.00 | 0.00 | 50 | 1010.9 |
| 20260903224004 | 36 | 102 | 12.9 | 41.8 | 0.00 | 0.00 | 0.00 | 47 | 1010.7 |
| 20260903223504 | 36 | 104 | 12.9 | 37.0 | 0.00 | 0.00 | 0.00 | 47 | 1010.8 |
| 20260903223004 | 35 | 113 | 16.1 | 38.6 | 0.00 | 0.00 | 0.00 | 47 | 1010.7 |
| 20260903222525 | 35 | 114 | 19.3 | 38.6 | 0.00 | 0.00 | 0.00 | 47 | 1010.7 |
| 20260903222004 | 35 | 110 | 17.7 | 45.1 | 0.00 | 0.00 | 0.00 | 47 | 1010.7 |
| 20260903221524 | 36 | 109 | 19.3 | 46.7 | 0.00 | 0.00 | 0.00 | 46 | 1010.7 |
| 20260903221004 | 36 | 108 | 22.5 | 46.7 | 0.00 | 0.00 | 0.00 | 46 | 1010.7 |
| 20260903220504 | 36 | 108 | 20.9 | 46.7 | 0.00 | 0.00 | 0.00 | 46 | 1010.7 |
| 20260903220004 | 37 | 109 | 16.1 | 46.7 | 0.00 | 0.00 | 0.00 | 44 | 1010.7 |
| 20260903215504 | 37 | 117 | 11.3 | 35.4 | 0.00 | 0.00 | 0.00 | 42 | 1010.7 |
| 20260903215004 | 38 | 121 | 12.9 | 30.6 | 0.00 | 0.00 | 0.00 | 42 | 1010.6 |
| 20260903214503 | 38 | 112 | 11.3 | 30.6 | 0.00 | 0.00 | 0.00 | 41 | 1010.5 |
| 20260903214004 | 38 | 109 | 9.7 | 27.4 | 0.00 | 0.00 | 0.00 | 41 | 1010.5 |
| 20260903213504 | 38 | 102 | 8.0 | 27.4 | 0.00 | 0.00 | 0.00 | 41 | 1010.5 |
| 20260903213025 | 38 | 104 | 9.7 | 25.7 | 0.00 | 0.00 | 0.00 | 41 | 1010.6 |
| 20260903212504 | 38 | 119 | 9.7 | 25.7 | 0.00 | 0.00 | 0.00 | 43 | 1010.9 |
| 20260903212025 | 38 | 130 | 9.7 | 25.7 | 0.00 | 0.00 | 0.00 | 42 | 1010.7 |
| 20260903211525 | 38 | 139 | 11.3 | 20.9 | 0.00 | 0.00 | 0.00 | 41 | 1010.7 |
| 20260903211004 | 38 | 130 | 9.7 | 25.7 | 0.00 | 0.00 | 0.00 | 42 | 1010.8 |
| 20260903210504 | 38 | 121 | 6.4 | 25.7 | 0.00 | 0.00 | 0.00 | 42 | 1010.7 |
| 20260903210004 | 39 | 128 | 6.4 | 20.9 | 0.00 | 0.00 | 0.00 | 40 | 1010.8 |
| 20260903205504 | 39 | 138 | 6.4 | 16.1 | 0.00 | 0.00 | 0.00 | 39 | 1010.8 |
| 20260903205004 | 39 | 133 | 8.0 | 17.7 | 0.00 | 0.00 | 0.00 | 39 | 1011.0 |
| 20260903204503 | 40 | 144 | 9.7 | 17.7 | 0.00 | 0.00 | 0.00 | 38 | 1011.1 |
| 20260903204004 | 40 | 136 | 9.7 | 20.9 | 0.00 | 0.00 | 0.00 | 38 | 1011.2 |
| 20260903203504 | 40 | 127 | 11.3 | 27.4 | 0.00 | 0.00 | 0.00 | 38 | 1011.2 |
| 20260903203004 | 41 | 145 | 11.3 | 27.4 | 0.00 | 0.00 | 0.00 | 38 | 1011.3 |
| 20260903202504 | 40 | 154 | 8.0 | 20.9 | 0.00 | 0.00 | 0.00 | 37 | 1011.5 |
| 20260903202004 | 40 | 148 | 8.0 | 20.9 | 0.00 | 0.00 | 0.00 | 38 | 1011.5 |
| 20260903201525 | 40 | 142 | 9.7 | 27.4 | 0.00 | 0.00 | 0.00 | 37 | 1011.5 |
| 20260903201003 | 40 | 157 | 9.7 | 27.4 | 0.00 | 0.00 | 0.00 | 38 | 1011.6 |
| 20260903200503 | 40 | 171 | 8.0 | 22.5 | 0.00 | 0.00 | 0.00 | 38 | 1011.6 |
| 20260903200004 | 40 | 158 | 8.0 | 20.9 | 0.00 | 0.00 | 0.00 | 39 | 1011.7 |
| 20260903195504 | 40 | 181 | 9.7 | 22.5 | 0.00 | 0.00 | 0.00 | 40 | 1011.7 |
| 20260903195004 | 40 | 187 | 11.3 | 22.5 | 0.00 | 0.00 | 0.00 | 40 | 1011.7 |
| 20260903194524 | 40 | 179 | 11.3 | 22.5 | 0.00 | 0.00 | 0.00 | 40 | 1011.7 |
| 20260903194025 | 40 | 167 | 9.7 | 22.5 | 0.00 | 0.00 | 0.00 | 40 | 1011.7 |
| 20260903193504 | 40 | 139 | 11.3 | 22.5 | 0.00 | 0.00 | 0.00 | 42 | 1011.9 |
| 20260903193025 | 39 | 137 | 9.7 | 22.5 | 0.00 | 0.00 | 0.00 | 41 | 1012.0 |
| 20260903192504 | 39 | 190 | 8.0 | 22.5 | 0.00 | 0.00 | 0.00 | 43 | 1012.1 |
| 20260903192004 | 39 | 200 | 9.7 | 22.5 | 0.00 | 0.00 | 0.00 | 41 | 1012.2 |
| 20260903191525 | 39 | 181 | 8.0 | 19.3 | 0.00 | 0.00 | 0.00 | 41 | 1012.2 |
| 20260903191025 | 39 | 148 | 9.7 | 20.9 | 0.00 | 0.00 | 0.00 | 43 | 1012.4 |
| 20260903190504 | 39 | 134 | 12.9 | 25.7 | 0.00 | 0.00 | 0.00 | 44 | 1012.7 |
| 20260903190024 | 39 | 128 | 12.9 | 32.2 | 0.00 | 0.00 | 0.00 | 43 | 1012.5 |
| 20260903185504 | 38 | 162 | 9.7 | 32.2 | 0.00 | 0.00 | 0.00 | 44 | 1012.5 |
| 20260903185025 | 38 | 202 | 9.7 | 22.5 | 0.00 | 0.00 | 0.00 | 45 | 1012.6 |
| 20260903184503 | 38 | 187 | 12.9 | 22.5 | 0.00 | 0.00 | 0.00 | 43 | 1012.7 |
| 20260903184003 | 38 | 152 | 12.9 | 22.5 | 0.00 | 0.00 | 0.00 | 46 | 1012.8 |
| 20260903183504 | 38 | 133 | 9.7 | 22.5 | 0.00 | 0.00 | 0.00 | 45 | 1012.9 |
| 20260903183003 | 38 | 147 | 9.7 | 22.5 | 0.00 | 0.00 | 0.00 | 46 | 1013.0 |
| 20260903182525 | 38 | 157 | 11.3 | 25.7 | 0.00 | 0.00 | 0.00 | 45 | 1013.0 |